N5DUP Weather Reports


Display with metric or nautical units.
time (UTC)temp
F
wind
direction
speed
MPH
gust
MPH
rain 1hr
in
rain 24hr
in
rain mn
in
humidity
%
barometer
mb
20260831124814 76 175 5.0 8.0 0.00 0.00 0.00 69 1015.6
20260831123307 76 170 4.0 8.0 0.00 0.00 0.00 69 1015.5
20260831121818 75 184 4.0 6.0 0.00 0.00 0.00 69 1015.4
20260831120312 76 178 4.0 7.0 0.00 0.00 0.00 68 1015.3
20260831114808 76 189 4.0 10.0 0.00 0.00 0.00 67 1015.2
20260831113306 77 184 5.0 11.0 0.00 0.00 0.00 67 1015.1
20260831111822 77 198 5.0 7.0 0.00 0.00 0.00 66 1015.0
20260831110314 77 202 5.0 8.0 0.00 0.00 0.00 65 1015.0
20260831104811 78 208 5.0 9.0 0.00 0.00 0.00 64 1015.0
20260831103340 78 188 5.0 10.0 0.00 0.00 0.00 64 1015.0
20260831101812 78 199 6.0 13.0 0.00 0.00 0.00 63 1015.0
20260831100308 77 194 4.0 11.0 0.00 0.00 0.00 63 1015.0
20260831094819 77 173 4.0 10.0 0.00 0.00 0.00 62 1014.9
20260831093311 77 186 5.0 8.0 0.00 0.00 0.00 60 1014.8
20260831091805 77 185 5.0 14.0 0.00 0.00 0.00 59 1014.8
20260831090318 77 180 4.0 9.0 0.00 0.00 0.00 58 1014.7
20260831084810 77 189 5.0 8.0 0.00 0.00 0.00 57 1014.7
20260831083304 78 194 5.0 9.0 0.00 0.00 0.00 57 1014.6
20260831081820 78 171 4.0 8.0 0.00 0.00 0.00 56 1014.5
20260831080312 78 175 3.0 7.0 0.00 0.00 0.00 56 1014.5
20260831074805 79 188 4.0 7.0 0.00 0.00 0.00 55 1014.5
20260831073318 79 169 4.0 6.0 0.00 0.00 0.00 54 1014.5
20260831071808 79 178 3.0 6.0 0.00 0.00 0.00 53 1014.4
20260831070343 80 184 3.0 9.0 0.00 0.00 0.00 53 1014.4
20260831064836 80 184 3.0 9.0 0.00 0.00 0.00 52 1014.6
20260831063308 81 180 4.0 8.0 0.00 0.00 0.00 51 1014.5
20260831061818 81 185 4.0 8.0 0.00 0.00 0.00 49 1014.6
20260831060312 82 182 3.0 8.0 0.00 0.00 0.00 49 1014.6
20260831054806 82 179 4.0 8.0 0.00 0.00 0.00 47 1014.7
20260831053319 83 184 4.0 12.0 0.00 0.00 0.00 46 1014.6
20260831051812 83 173 4.0 9.0 0.00 0.00 0.00 45 1014.6
20260831050327 84 171 5.0 11.0 0.00 0.00 0.00 43 1014.5
20260831044811 84 197 3.0 9.0 0.00 0.00 0.00 42 1014.5
20260831043321 85 170 3.0 8.0 0.00 0.00 0.00 40 1014.5
20260831041815 85 183 4.0 10.0 0.00 0.00 0.00 38 1014.6
20260831040305 86 187 5.0 10.0 0.00 0.00 0.00 37 1014.5
20260831034818 87 181 5.0 10.0 0.00 0.00 0.00 36 1014.4
20260831033328 87 193 4.0 9.0 0.00 0.00 0.00 36 1014.2
20260831031818 88 178 5.0 11.0 0.00 0.00 0.00 35 1014.1
20260831030307 88 176 3.0 10.0 0.00 0.00 0.00 35 1013.9
20260831024806 88 171 3.0 7.0 0.00 0.00 0.00 35 1013.7
20260831023319 89 178 2.0 7.0 0.00 0.00 0.00 34 1013.4
20260831021815 89 150 3.0 6.0 0.00 0.00 0.00 33 1013.1
20260831020343 90 188 3.0 6.0 0.00 0.00 0.00 32 1012.8
20260831014813 90 178 2.0 5.0 0.00 0.00 0.00 30 1012.8
20260831013342 91 182 0.0 4.0 0.00 0.00 0.00 28 1012.5
20260831011815 92 170 1.0 5.0 0.00 0.00 0.00 27 1012.4
20260831010311 93 180 1.0 6.0 0.00 0.00 0.00 27 1012.3
20260831004825 94 180 3.0 6.0 0.00 0.00 0.00 26 1012.1
20260831003342 95 171 4.0 7.0 0.00 0.00 0.00 25 1012.0
20260831001812 96 162 5.0 10.0 0.00 0.00 0.00 24 1012.0
20260831000306 97 191 5.0 8.0 0.00 0.00 0.00 24 1012.1
20260830234840 97 158 5.0 9.0 0.00 0.00 0.00 24 1012.3
20260830233309 97 181 3.0 11.0 0.00 0.00 0.00 25 1012.3
20260830231823 99 182 3.0 8.0 0.00 0.00 0.00 24 1012.3
20260830230319 98 174 3.0 8.0 0.00 0.00 0.00 24 1012.3
20260830224832 99 192 1.0 7.0 0.00 0.00 0.00 24 1012.4
20260830223322 99 209 5.0 13.0 0.00 0.00 0.00 24 1012.4
20260830221815 99 184 3.0 12.0 0.00 0.00 0.00 24 1012.3
20260830220308 99 180 5.0 11.0 0.00 0.00 0.00 23 1012.4
20260830214822 100 84 3.0 10.0 0.00 0.00 0.00 24 1012.5
20260830213314 100 201 6.0 12.0 0.00 0.00 0.00 23 1012.7
20260830211806 100 182 3.0 8.0 0.00 0.00 0.00 23 1012.8
20260830210321 100 90 2.0 7.0 0.00 0.00 0.00 25 1013.0
20260830204814 100 209 5.0 10.0 0.00 0.00 0.00 24 1013.4
20260830203322 99 220 5.0 10.0 0.00 0.00 0.00 24 1013.7
20260830201810 98 213 4.0 11.0 0.00 0.00 0.00 26 1014.0
20260830200304 97 180 2.0 11.0 0.00 0.00 0.00 28 1014.1
20260830194815 98 184 3.0 12.0 0.00 0.00 0.00 28 1014.4
20260830193330 97 198 2.0 9.0 0.00 0.00 0.00 30 1014.6
20260830191817 97 86 2.0 16.0 0.00 0.00 0.00 29 1014.7
20260830190331 97 200 5.0 10.0 0.00 0.00 0.00 31 1014.8
20260830184816 96 188 2.0 9.0 0.00 0.00 0.00 33 1014.9
20260830183330 96 207 1.0 11.0 0.00 0.00 0.00 34 1015.2
20260830181837 95 156 7.0 13.0 0.00 0.00 0.00 34 1015.6
20260830180329 94 205 5.0 11.0 0.00 0.00 0.00 36 1015.9
20260830174837 94 216 6.0 9.0 0.00 0.00 0.00 36 1016.1
20260830173309 93 218 4.0 10.0 0.00 0.00 0.00 38 1016.4
20260830171815 93 184 5.0 12.0 0.00 0.00 0.00 40 1016.6
20260830170307 91 209 8.0 14.0 0.00 0.00 0.00 41 1016.7
20260830164834 91 173 5.0 14.0 0.00 0.00 0.00 42 1016.8
20260830163305 90 207 6.0 12.0 0.00 0.00 0.00 45 1016.7
20260830161817 89 202 7.0 14.0 0.00 0.00 0.00 46 1016.7
20260830160310 88 199 7.0 14.0 0.00 0.00 0.00 48 1016.8
20260830154806 87 208 7.0 10.0 0.00 0.00 0.00 49 1016.9
20260830153318 86 215 8.0 12.0 0.00 0.00 0.00 52 1016.7
20260830151807 85 214 6.0 12.0 0.00 0.00 0.00 54 1016.8
20260830150318 84 200 6.0 11.0 0.00 0.00 0.00 56 1016.8
20260830144829 83 217 6.0 11.0 0.00 0.00 0.00 58 1016.9
20260830143320 82 206 7.0 11.0 0.00 0.00 0.00 60 1016.8
20260830141809 81 192 8.0 16.0 0.00 0.00 0.00 61 1016.8
20260830140322 80 211 7.0 10.0 0.00 0.00 0.00 62 1016.9
20260830134834 80 215 5.0 14.0 0.00 0.00 0.00 62 1016.8
20260830133309 79 205 6.0 12.0 0.00 0.00 0.00 63 1016.7
20260830131818 78 209 6.0 13.0 0.00 0.00 0.00 64 1016.5
20260830130309 77 192 5.0 7.0 0.00 0.00 0.00 65 1016.3